CAPE
1208 1137 984 1130 1083 1005 1064 1030 1022 995 1156 1120 1016 920 1076 993 822 672 613 576 478 367 26 2 0 0 6 24 5 0 53 532 516 545 544 590 767 1014 1115 964 927 855 628 481 402 350 247 169 147 106 87 39 28 21 4 9 185 77 596 427 235 21 1 0 0 0 0 0 1 1 0 1 1 1 0 0 0 0 0 0 0 0 0 1 1
1245 1157 1120 1117 1038 865 708 670 787 829 776 922 899 714 749 876 847 620 469 340 346 385 30 0 0 0 0 6 1 17 339 465 493 530 556 541 642 701 1024 756 683 675 657 450 447 415 316 224 151 130 135 76 48 35 16 3 6 135 140 545 267 52 1 0 0 0 0 0 0 1 2 2 2 1 0 1 0 0 0 0 0 0 0 0 1
1002 1025 1215 1175 1044 917 772 705 608 581 695 598 625 514 340 421 463 338 355 362 111 0 0 0 0 0 2 0 0 2 443 451 486 544 603 603 654 633 810 815 759 756 657 534 512 446 395 271 242 154 106 95 104 50 26 7 1 61 125 617 305 118 19 0 0 0 0 0 0 0 1 0 1 1 0 0 0 1 0 0 0 0 0 0 0
1117 1192 1206 1169 1119 1101 956 841 771 674 933 1023 888 600 410 344 317 334 352 125 88 0 0 0 0 0 0 0 0 0 308 475 504 578 609 621 624 712 702 675 934 957 793 602 528 618 413 394 345 253 196 107 75 104 59 24 11 7 82 420 420 235 96 12 0 0 0 0 0 0 0 1 0 0 2 1 0 0 0 1 0 0 0 0 0
1008 1095 1156 1080 1078 1069 938 771 765 689 816 948 1118 1017 845 683 533 542 437 373 357 214 0 0 0 0 0 0 181 9 1 405 505 554 525 557 634 746 785 701 733 1068 927 805 674 645 626 520 443 334 300 164 158 77 56 74 29 18 6 378 312 358 241 86 12 0 0 0 0 0 0 1 1 0 0 0 0 1 0 0 0 0 1 0 0
1017 1062 1134 1128 1051 937 871 785 703 694 974 1120 1146 896 1035 1166 1138 794 404 378 371 276 0 0 0 16 58 146 68 27 2 375 516 492 468 515 564 714 798 736 703 870 1010 1102 833 797 595 709 475 466 399 287 234 204 104 22 55 7 33 126 113 117 347 189 81 8 0 0 0 0 0 1 1 2 2 0 1 0 0 1 0 0 0 0 0
1074 1068 1134 1165 1039 912 834 722 797 838 904 1186 1295 1380 1202 975 633 391 352 360 342 297 0 0 5 57 30 56 75 40 22 26 32 512 580 591 575 592 681 674 692 791 844 962 965 829 628 714 697 658 530 436 336 268 262 111 99 19 3 41 12 136 172 355 176 56 2 0 0 0 0 1 1 2 2 0 0 0 0 1 1 1 0 0 0
1079 1084 1118 1186 1132 1006 908 909 888 1039 1047 1060 1271 1296 1055 712 499 454 393 360 146 65 0 0 111 193 333 230 33 212 93 4 46 54 537 672 653 611 616 554 622 700 842 845 865 758 712 684 922 809 828 642 463 378 358 323 204 170 51 14 34 20 135 284 266 167 46 5 0 0 0 1 1 0 1 1 1 2 1 0 0 0 0 0 0
934 983 1113 1212 1130 1029 958 1120 981 1057 1118 1192 1259 1229 1017 734 650 578 529 429 182 172 178 102 144 14 45 336 335 0 254 197 148 28 10 33 407 460 579 582 562 929 861 694 776 756 854 859 972 841 850 780 734 529 499 404 361 193 236 94 81 38 63 18 398 321 208 49 2 0 0 1 0 0 1 2 1 1 2 2 0 0 0 0 0
810 857 1031 1107 1034 960 1003 995 917 996 1125 1171 1248 1216 1075 663 660 582 517 330 177 88 159 171 319 184 9 113 290 260 286 289 220 161 0 18 98 184 314 436 505 631 734 696 665 706 700 809 975 995 874 585 613 900 622 638 521 333 260 312 192 112 47 18 72 220 358 184 54 7 0 0 0 0 0 1 1 1 2 3 0 0 0 0 0
728 869 944 932 864 930 969 950 958 1138 1080 833 884 1150 1109 755 589 636 557 369 276 253 289 394 165 115 258 140 3 176 378 295 308 244 211 309 229 426 85 463 457 561 591 636 597 606 632 622 735 860 792 634 587 916 775 879 702 587 416 505 312 153 95 44 10 66 185 362 190 53 0 0 0 0 0 0 0 1 0 1 0 0 0 1 0
708 717 645 826 853 905 815 880 924 1057 1118 997 800 1047 1027 904 678 675 588 453 311 455 421 470 503 232 363 253 25 339 523 404 333 297 243 184 318 270 120 429 524 621 617 616 483 423 529 553 580 687 728 767 705 711 892 921 858 971 609 687 586 278 127 134 70 22 85 219 319 146 9 0 0 0 0 0 0 0 0 0 0 0 0 1 0
519 564 658 719 627 676 669 708 916 1022 940 849 957 954 957 855 724 667 566 529 490 477 472 488 522 450 521 185 210 926 1060 735 459 344 268 213 114 505 419 363 424 548 550 672 668 596 522 484 442 518 632 666 748 768 680 740 758 865 984 737 694 548 326 272 212 62 55 77 194 342 61 0 0 0 0 0 0 0 0 0 0 0 0 0 1
464 515 526 681 744 702 792 887 976 873 726 750 730 968 1002 918 785 677 546 501 559 561 612 590 595 503 598 494 366 657 1036 870 635 404 297 214 140 511 391 475 320 147 453 606 576 541 535 549 614 574 512 546 624 715 746 715 720 725 1057 1120 936 698 679 663 504 312 106 104 123 326 198 38 0 0 0 0 0 0 0 0 0 0 0 0 0
588 591 584 928 891 940 918 874 665 645 769 737 764 867 973 982 904 802 714 641 627 640 636 659 640 639 579 389 268 87 118 538 546 388 296 286 195 393 424 440 331 362 328 102 293 372 475 515 542 577 568 566 598 537 644 703 677 677 705 915 1174 1194 769 827 817 776 378 222 206 177 378 159 14 0 0 0 0 0 0 0 0 0 0 0 0
0 0 39 1040 1051 978 849 586 531 548 629 807 719 734 769 618 635 724 678 724 627 612 603 627 560 562 519 101 262 450 15 39 487 626 976 940 490 599 560 491 297 358 428 395 200 418 602 518 501 483 484 491 589 625 529 516 600 677 686 625 635 891 1101 1107 847 1055 897 544 398 303 472 294 137 42 7 0 0 0 0 0 0 0 0 0 0
0 0 0 0 711 863 701 522 551 574 811 824 873 779 666 709 673 672 692 529 521 563 631 594 514 490 418 367 105 3 155 704 614 710 697 963 929 1043 978 734 304 315 439 477 609 416 382 584 540 428 367 357 386 402 381 361 430 564 687 626 611 636 847 1045 1193 1060 1256 1005 669 528 510 379 354 161 42 19 7 0 0 0 0 0 0 0 0
0 0 0 0 0 541 602 605 671 693 792 644 595 506 110 607 737 795 810 651 654 549 536 526 522 494 435 443 24 33 618 483 133 186 500 545 817 1116 825 841 562 582 388 30 19 285 473 470 355 218 280 333 344 335 323 350 384 409 504 542 510 594 708 861 1228 1328 1119 1203 1056 836 657 523 566 300 130 61 40 10 0 0 0 0 0 0 0
0 0 0 0 0 0 0 0 0 473 510 528 287 136 563 544 432 523 646 762 644 635 495 517 529 518 498 398 453 479 632 356 131 303 302 484 527 695 624 450 524 665 377 152 50 539 512 552 618 578 369 228 245 328 372 366 387 435 470 502 613 596 514 543 588 1191 1416 1098 933 1305 665 589 694 528 218 140 89 57 10 1 0 0 0 0 0
0 0 0 0 0 0 0 0 0 0 0 0 0 0 276 483 462 207 373 532 516 538 543 596 409 464 516 416 393 502 676 393 266 39 0 84 265 237 538 688 578 429 504 445 451 492 624 460 321 450 543 375 274 305 381 438 487 489 494 541 584 588 503 387 457 452 574 1244 1290 873 740 788 603 561 403 331 258 178 59 12 1 1 2 1 0
0 0 0 0 0 0 0 0 0 0 0 0 0 0 0 126 103 0 0 92 376 350 386 482 467 455 439 454 339 577 463 164 9 11 1 3 2 124 0 0 168 361 408 282 332 349 418 439 390 580 576 533 403 295 284 305 332 336 367 371 368 350 392 438 368 296 108 98 696 1086 794 582 607 507 522 495 400 208 202 53 10 3 2 2 2
0 0 0 0 0 0 0 0 0 0 0 0 0 0 0 0 0 0 0 0 27 168 62 135 198 191 262 352 312 469 312 2 7 12 10 4 4 3 0 0 0 0 35 384 460 247 132 241 395 523 572 394 385 351 269 213 248 299 279 314 358 388 384 399 415 451 359 75 67 347 828 741 710 590 481 454 298 368 339 332 99 248 138 14 3
0 0 0 0 0 0 0 0 0 0 0 0 0 0 0 0 0 0 0 0 0 0 0 0 0 20 48 234 415 308 0 0 0 0 0 0 0 0 0 0 0 0 0 14 229 343 284 298 346 491 384 354 475 580 488 449 423 473 305 334 347 315 285 317 375 439 515 492 374 258 448 681 746 687 491 489 583 674 654 496 410 373 267 160 101
0 0 0 0 0 0 0 0 0 0 0 0 0 0 0 0 0 0 0 0 0 0 0 0 0 0 0 0 0 0 0 0 0 0 0 0 0 0 0 0 0 0 0 0 34 90 96 162 335 569 679 511 460 630 663 564 477 460 353 389 413 324 282 297 320 314 352 369 389 368 257 667 741 722 730 674 713 620 645 709 703 523 483 341 237
0 0 0 0 0 0 0 0 0 0 0 0 0 0 0 0 0 0 0 0 0 0 0 0 0 0 0 0 0 0 0 0 0 0 0 0 0 0 0 0 0 0 0 0 0 0 0 0 0 389 692 562 589 655 678 591 407 389 646 496 400 442 537 538 549 573 495 440 454 479 458 394 765 1024 922 786 683 550 589 682 752 678 579 493 406
0 0 0 0 0 0 0 0 0 0 0 0 0 0 0 0 0 0 0 0 0 0 0 0 0 0 0 0 0 0 0 0 0 0 0 0 0 0 0 0 0 0 0 0 0 0 0 0 0 0 76 139 220 246 347 222 290 459 440 359 405 430 467 311 287 347 464 542 542 462 293 244 303 495 678 758 738 456 471 520 495 564 556 534 413
0 0 0 0 0 0 0 0 0 0 0 0 0 0 0 0 0 0 0 0 0 0 0 0 0 0 0 0 0 0 0 0 0 0 0 0 0 0 0 0 0 0 0 0 0 0 0 0 0 0 0 0 5 141 215 261 245 238 308 316 429 421 343 239 193 199 181 102 105 165 232 259 278 269 264 248 319 487 516 487 412 368 619 529 536
0 0 0 0 0 0 0 0 0 0 0 0 0 0 0 0 0 0 0 0 0 0 0 0 0 0 0 0 0 0 0 0 0 0 0 0 0 0 0 0 0 0 0 0 0 0 0 0 0 0 0 82 88 136 171 101 20 2 2 0 2 24 62 78 36 32 38 44 42 44 60 164 59 0 0 0 0 0 106 385 562 625 640 545 237
0 0 0 0 0 0 0 0 0 0 0 0 0 0 0 0 0 0 0 0 0 0 0 0 0 0 0 0 0 0 0 0 0 0 0 0 0 0 0 0 0 0 0 0 0 0 0 0 0 0 0 0 0 0 150 48 0 0 0 0 0 0 0 0 0 0 0 0 0 0 0 0 0 0 0 0 0 0 0 0 0 341 529 600 567
0 0 0 0 0 0 0 0 0 0 0 0 0 0 0 0 0 0 0 0 0 0 0 0 0 0 0 0 0 0 0 0 0 0 0 0 0 0 0 0 0 0 0 0 0 0 0 0 0 0 0 0 0 0 0 0 0 0 0 0 0 0 0 0 0 0 0 0 0 0 0 0 0 0 0 0 0 0 0 0 0 0 0 310 442
0 0 0 0 0 0 0 0 0 0 0 0 0 0 0 0 0 0 0 0 0 0 0 0 0 0 0 0 0 0 0 0 0 0 0 0 0 0 0 0 0 0 0 0 0 0 0 0 0 0 0 0 0 0 0 0 0 0 0 0 0 0 0 0 0 0 0 0 0 0 0 0 0 0 0 0 0 0 0 0 0 0 0 0 0
163 81 0 0 0 0 0 0 0 0 0 0 0 0 0 0 0 0 0 0 0 0 0 0 0 0 0 0 0 0 0 0 0 0 0 0 0 0 0 0 0 0 0 0 0 0 0 0 0 0 0 0 0 0 0 0 0 0 0 0 0 0 0 0 0 0 0 0 0 0 0 0 0 0 0 0 0 0 0 0 0 0 0 0 0
197 189 139 44 0 0 0 0 0 0 0 0 0 0 0 0 0 0 0 0 0 0 0 0 0 0 0 0 0 0 0 0 0 0 0 0 0 0 0 0 0 0 0 0 0 0 0 0 0 0 0 0 0 0 0 0 0 0 0 0 0 0 0 0 0 0 0 0 0 0 0 0 0 0 0 0 0 0 0 0 0 0 0 0 0
209 212 196 202 196 166 149 171 2 0 0 0 0 0 0 0 0 0 0 0 0 0 0 0 0 0 0 0 0 0 0 0 0 0 0 0 0 0 0 0 0 0 0 0 0 0 0 0 0 0 0 0 0 0 0 0 0 0 0 0 0 0 0 0 0 0 0 0 0 0 0 0 0 0 0 0 0 0 0 0 0 0 0 0 0
256 55 65 172 146 21 22 202 216 182 17 0 0 0 0 0 0 0 0 0 0 0 0 0 0 0 0 0 0 0 0 0 0 0 0 0 0 0 0 0 0 0 0 0 0 0 0 0 0 0 0 0 0 0 0 0 0 0 0 0 0 0 0 0 0 0 0 0 0 0 0 0 0 0 0 0 0 0 0 0 0 0 0 0 0
340 344 350 96 99 89 65 40 230 51 30 0 0 0 0 0 0 0 0 0 0 0 0 0 0 0 0 0 0 0 0 0 0 0 0 0 0 0 0 0 0 0 0 0 0 0 0 0 0 0 0 0 0 0 0 0 0 0 0 0 0 0 0 0 0 0 0 0 0 0 0 0 0 0 0 0 0 0 0 0 0 0 0 0 0
443 421 406 377 367 338 323 310 311 292 266 176 78 0 0 0 0 0 0 0 0 0 0 0 0 0 0 0 0 0 0 0 0 0 0 0 0 0 0 0 0 0 0 0 0 0 0 0 0 0 0 0 0 0 0 0 0 0 0 0 0 0 0 0 0 0 0 0 0 0 0 0 0 0 0 0 0 0 0 0 0 0 0 0 0
407 445 467 422 393 403 374 359 349 355 341 314 288 277 250 216 183 29 0 0 0 0 0 0 0 0 0 0 0 0 0 0 0 0 0 0 0 0 0 0 0 0 0 0 0 0 0 0 0 0 0 0 0 0 0 0 0 0 0 0 0 0 0 0 0 0 0 0 0 0 0 0 0 0 0 0 0 0 0 0 0 0 0 0 0
573 526 385 494 504 517 496 444 414 397 362 348 323 297 272 244 216 209 183 0 0 0 0 0 2 1 0 0 0 0 0 0 0 0 0 0 1 1 0 0 0 0 0 0 0 0 0 0 0 0 0 0 0 0 0 0 0 0 0 0 0 0 0 0 0 0 0 0 0 0 0 0 0 0 0 0 0 0 0 0 0 0 0 0 0
550 426 196 19 346 406 428 357 226 232 249 309 321 316 287 252 235 234 214 199 47 0 0 0 0 0 0 0 0 0 0 0 0 0 0 0 3 4 2 0 0 0 0 0 0 0 0 0 0 0 0 0 0 0 0 0 0 0 0 0 0 0 0 0 0 0 0 0 0 0 0 0 0 0 0 0 0 0 0 0 0 0 0 0 0
419 412 356 275 13 3 0 0 0 0 0 0 1 56 265 260 238 240 230 214 206 165 0 0 0 0 13 0 0 0 0 45 2 0 0 0 1 2 2 0 0 0 0 0 0 0 0 0 0 0 0 0 0 0 0 0 0 0 0 0 0 0 0 0 0 0 0 0 0 0 0 0 0 0 0 0 0 0 0 0 0 0 0 0 0
631 635 667 643 588 524 421 342 142 115 0 123 119 0 5 156 256 255 250 227 224 210 172 90 0 0 114 73 0 9 54 45 10 0 0 0 1 1 1 0 0 0 0 0 0 0 0 0 0 0 0 0 0 0 0 0 0 0 0 0 0 0 0 0 0 0 0 0 0 0 0 0 0 0 0 0 0 0 0 0 0 0 0 0 0
806 767 724 642 631 640 589 535 455 448 466 427 375 350 278 0 216 234 225 272 245 190 190 170 140 137 145 125 104 88 58 28 17 7 2 5 6 2 1 1 0 0 0 0 0 0 0 0 0 0 0 0 0 0 0 0 0 0 0 0 0 0 0 0 0 0 0 0 0 0 0 0 0 0 0 0 0 0 0 0 0 0 0 0 0
704 579 506 442 435 477 512 530 533 541 549 594 598 562 501 440 401 370 343 325 299 240 213 203 181 160 147 125 132 132 110 55 15 8 2 1 1 0 0 2 0 0 0 0 0 0 0 0 0 0 0 0 0 0 0 0 0 0 0 0 0 0 0 0 0 0 0 0 0 0 0 0 0 0 0 0 0 0 0 0 0 0 0 0 0
182 308 310 385 443 486 532 589 610 604 642 641 619 617 627 594 542 479 431 389 314 257 196 180 162 160 156 134 144 134 94 63 14 4 1 1 5 8 3 0 0 0 0 0 0 0 0 0 0 0 0 0 0 0 0 0 0 0 0 0 0 0 0 0 0 0 0 0 0 0 0 0 0 0 0 0 0 0 0 0 0 0 0 0 0
1 19 147 300 447 532 570 636 741 732 690 667 622 605 583 513 463 400 389 371 304 162 0 0 0 191 163 132 110 85 22 11 5 11 2 0 0 3 4 0 0 0 0 0 0 0 0 0 0 0 0 0 0 0 0 0 0 0 0 0 0 0 0 0 0 0 0 0 0 0 0 0 0 0 0 0 0 0 0 0 0 0 0 0 0
0 0 0 0 133 346 482 676 855 804 714 648 565 547 514 439 366 293 283 295 331 351 321 294 0 0 0 4 15 0 4 10 7 2 0 0 0 0 0 0 0 0 0 0 0 0 0 0 0 0 0 0 0 0 0 0 0 0 0 0 0 0 0 0 0 0 0 0 0 0 0 0 0 0 0 0 0 0 0 0 0 0 0 0 0
0 0 0 0 0 40 278 617 814 761 608 508 508 490 426 367 307 237 94 49 191 225 213 41 0 79 0 11 0 0 1 3 2 0 0 0 0 0 0 0 1 1 0 0 0 0 0 0 0 0 0 0 0 0 0 0 0 0 0 0 0 0 0 0 0 0 0 0 0 0 0 0 0 0 0 0 0 0 0 0 0 0 0 0 0
0 0 0 0 0 0 144 444 602 598 561 474 409 328 286 255 208 0 0 0 0 0 0 0 0 0 7 2 6 8 2 2 0 2 0 0 0 0 0 1 2 0 0 0 0 0 0 0 0 0 0 0 0 0 0 0 0 0 0 0 0 0 0 0 0 0 0 0 0 0 0 0 0 0 0 0 0 0 0 0 0 0 0 0 0
0 0 0 0 0 0 72 352 456 519 559 517 466 384 280 228 201 73 0 0 0 0 0 28 32 10 8 4 6 4 3 2 1 2 0 0 1 0 0 0 0 0 0 0 0 0 0 0 0 0 0 0 0 0 0 0 0 0 0 0 0 0 0 0 0 0 0 0 0 0 0 0 0 0 0 0 0 0 0 0 0 0 0 0 0
0 0 0 0 0 0 0 113 332 389 377 339 244 209 200 188 173 172 108 0 0 0 20 20 14 6 5 6 8 6 2 2 0 0 0 1 0 0 0 0 0 0 0 0 0 0 0 0 0 0 0 0 0 0 0 0 0 0 0 0 0 0 0 0 0 0 0 0 0 0 0 0 0 0 0 0 0 0 0 0 0 0 0 0 0
Wind_Speed
18 20 22 20 20 19 19 18 18 18 20 20 19 18 15 14 13 13 13 14 16 17 nan nan nan nan nan nan nan nan nan 20 20 21 23 25 28 30 28 27 27 29 30 30 30 29 29 26 24 23 nan nan nan nan nan nan 22 nan 17 19 19 nan nan nan nan nan nan nan nan nan nan nan nan nan nan nan nan nan nan nan nan nan nan nan nan
17 19 20 19 18 17 18 17 18 17 18 18 18 18 15 15 14 13 14 14 14 13 nan nan nan nan nan nan nan nan 21 22 22 21 22 24 26 31 29 29 30 30 29 28 28 31 30 28 27 26 23 nan nan nan nan nan nan 20 19 20 22 nan nan nan nan nan nan nan nan nan nan nan nan nan nan nan nan nan nan nan nan nan nan nan nan
17 18 17 17 17 17 16 16 17 16 16 16 18 16 15 15 14 14 14 15 14 nan nan nan nan nan nan nan nan nan 22 22 22 22 22 22 24 30 32 29 30 29 28 27 28 29 30 28 28 28 26 nan 23 nan nan nan nan nan 21 22 24 23 nan nan nan nan nan nan nan nan nan nan nan nan nan nan nan nan nan nan nan nan nan nan nan
15 15 16 16 15 15 15 15 15 16 16 17 16 16 14 15 15 15 15 17 nan nan nan nan nan nan nan nan nan nan 21 21 22 21 21 22 23 27 33 33 29 29 27 26 27 28 28 29 29 29 29 27 nan 25 nan nan nan nan nan 25 25 25 nan nan nan nan nan nan nan nan nan nan nan nan nan nan nan nan nan nan nan nan nan nan nan
14 14 14 13 14 15 14 13 14 15 16 17 17 15 14 14 15 16 18 20 18 18 nan nan nan nan nan nan 22 nan nan 21 20 20 21 22 22 24 30 34 33 29 27 26 26 28 28 29 30 30 30 29 28 nan nan nan nan nan nan 28 26 24 25 nan nan nan nan nan nan nan nan nan nan nan nan nan nan nan nan nan nan nan nan nan nan
12 14 13 13 13 14 14 14 14 15 17 17 16 14 13 15 15 18 18 19 18 18 nan nan nan nan nan 22 nan nan nan 22 22 21 22 23 23 23 27 32 34 34 32 27 25 26 27 29 29 30 31 29 29 28 27 nan nan nan nan 26 28 25 24 26 nan nan nan nan nan nan nan nan nan nan nan nan nan nan nan nan nan nan nan nan nan
11 12 12 12 13 13 15 14 13 15 16 16 15 15 15 15 18 18 19 20 19 19 nan nan nan nan nan nan nan nan nan nan nan 22 25 26 25 24 25 29 34 35 34 32 27 24 25 27 27 30 29 29 29 29 28 27 nan nan nan nan nan 27 25 27 27 nan nan nan nan nan nan nan nan nan nan nan nan nan nan nan nan nan nan nan nan
11 10 10 10 10 12 13 13 12 13 15 16 15 14 14 17 16 18 19 20 20 nan nan nan 20 22 20 19 nan 21 nan nan nan nan 25 26 25 24 25 27 32 34 35 34 32 27 24 25 26 28 30 29 30 29 28 28 27 27 nan nan nan nan 26 27 29 28 nan nan nan nan nan nan nan nan nan nan nan nan nan nan nan nan nan nan nan
9 8 9 8 10 12 13 13 13 12 13 14 15 13 14 16 17 16 18 18 20 21 19 18 19 nan nan 20 20 nan 21 21 19 nan nan nan 23 23 24 25 29 33 36 35 33 30 26 24 24 26 29 30 31 29 28 27 28 29 28 nan nan nan nan nan 29 29 29 nan nan nan nan nan nan nan nan nan nan nan nan nan nan nan nan nan nan
10 8 8 9 10 10 13 14 13 14 13 14 14 13 15 16 16 16 16 18 19 nan 17 16 16 19 nan 21 20 20 19 20 20 20 nan nan nan 23 21 23 26 30 35 37 35 32 31 26 23 24 26 28 28 29 28 28 29 29 29 28 28 28 nan nan nan 27 29 31 nan nan nan nan nan nan nan nan nan nan nan nan nan nan nan nan nan
10 9 9 10 10 10 13 14 14 15 14 16 11 13 15 15 15 15 17 18 18 16 15 16 16 16 19 19 nan 19 18 18 20 22 21 19 21 23 nan 21 24 28 34 38 38 36 34 32 29 27 26 24 25 25 26 28 29 29 29 28 29 29 nan nan nan nan 27 28 30 nan nan nan nan nan nan nan nan nan nan nan nan nan nan nan nan
9 9 10 11 11 11 12 13 14 16 16 15 10 11 14 16 15 15 16 16 17 17 17 16 15 17 16 15 nan 18 18 18 18 20 20 20 20 20 22 21 23 25 30 35 39 38 36 34 32 29 29 25 22 23 23 25 28 28 28 27 27 30 30 29 nan nan nan 26 28 30 nan nan nan nan nan nan nan nan nan nan nan nan nan nan nan
10 10 11 11 12 11 13 14 15 15 15 15 14 14 15 16 16 16 15 15 15 16 15 16 16 15 15 16 16 17 17 17 17 17 18 19 18 19 18 19 19 20 25 33 38 39 37 35 32 30 28 27 25 22 21 22 24 25 24 25 25 26 29 29 29 nan nan nan 27 29 nan nan nan nan nan nan nan nan nan nan nan nan nan nan nan
8 10 11 12 14 14 14 14 15 15 15 15 15 16 17 18 17 18 15 15 15 15 14 15 16 16 16 15 15 13 14 16 16 16 17 19 20 19 18 17 15 15 20 26 34 38 39 36 34 31 29 28 26 26 25 23 23 22 23 21 21 23 25 27 28 27 26 25 26 28 30 nan nan nan nan nan nan nan nan nan nan nan nan nan nan
7 9 10 12 14 15 15 15 16 16 17 17 17 17 17 18 18 18 17 16 16 15 15 16 15 16 16 18 15 nan 13 15 15 16 18 19 20 19 17 17 15 14 14 19 26 35 40 40 36 33 31 29 28 27 26 25 24 24 23 22 20 18 19 22 24 25 26 25 25 26 31 30 nan nan nan nan nan nan nan nan nan nan nan nan nan
nan nan nan 12 13 15 16 16 16 16 18 19 18 18 19 19 18 17 18 18 17 16 16 16 17 16 16 16 16 16 nan nan 15 15 17 19 19 19 17 17 17 17 16 16 20 30 37 41 39 36 33 31 30 29 28 27 24 22 22 23 21 18 14 14 19 23 24 26 26 25 31 29 30 nan nan nan nan nan nan nan nan nan nan nan nan
nan nan nan nan 15 14 14 15 17 17 18 18 18 18 18 17 18 18 17 18 19 18 17 16 15 15 16 18 17 nan 16 16 17 16 17 18 18 18 17 17 18 20 19 16 16 22 30 37 42 42 37 35 33 31 29 29 29 28 25 23 21 19 16 13 14 17 22 24 25 25 28 29 29 28 nan nan nan nan nan nan nan nan nan nan nan
nan nan nan nan nan 16 16 17 16 16 17 18 18 19 20 19 18 19 19 19 20 20 18 17 16 15 16 15 nan nan 18 16 19 16 15 16 15 16 16 15 14 16 18 nan nan 18 22 30 39 43 43 40 38 35 32 32 31 30 30 27 23 20 18 16 15 15 14 19 22 24 24 27 27 27 26 nan nan nan nan nan nan nan nan nan nan
nan nan nan nan nan nan nan nan nan 16 17 19 19 19 20 20 20 21 20 21 22 21 20 19 20 17 17 16 17 18 18 19 19 18 18 16 17 16 16 16 13 14 16 17 nan 15 16 21 31 41 44 43 42 40 37 34 32 31 30 27 26 23 21 19 18 16 14 15 17 18 19 22 25 25 26 26 nan nan nan nan nan nan nan nan nan
nan nan nan nan nan nan nan nan nan nan nan nan nan nan 22 20 21 21 22 22 22 23 22 20 19 18 19 17 17 19 20 22 21 nan nan nan 16 16 16 15 14 13 15 15 16 14 15 14 19 29 41 46 46 43 40 39 39 37 34 28 28 26 24 22 21 20 17 16 18 18 19 21 20 21 25 26 25 26 nan nan nan nan nan nan nan
nan nan nan nan nan nan nan nan nan nan nan nan nan nan nan 22 22 nan nan nan 23 23 23 19 19 19 22 19 20 21 22 23 nan nan nan nan nan 20 nan nan 17 15 16 17 17 16 15 13 13 17 26 37 45 46 44 43 44 42 38 33 29 28 29 27 25 23 21 nan 23 25 23 24 22 24 23 20 24 25 25 nan nan nan nan nan nan
nan nan nan nan nan nan nan nan nan nan nan nan nan nan nan nan nan nan nan nan nan 25 nan 22 22 22 20 22 21 22 23 nan nan nan nan nan nan nan nan nan nan nan nan 19 17 17 15 14 14 15 17 21 28 38 45 48 47 46 44 43 40 37 35 32 30 28 27 nan nan 28 30 28 25 25 26 23 22 22 21 22 nan 23 20 nan nan
nan nan nan nan nan nan nan nan nan nan nan nan nan nan nan nan nan nan nan nan nan nan nan nan nan nan nan 24 23 21 nan nan nan nan nan nan nan nan nan nan nan nan nan nan 19 19 19 17 15 17 17 18 19 27 36 43 46 46 46 47 45 43 42 39 36 33 32 32 32 31 29 30 31 30 28 27 25 25 22 21 22 22 20 19 20
nan nan nan nan nan nan nan nan nan nan nan nan nan nan nan nan nan nan nan nan nan nan nan nan nan nan nan nan nan nan nan nan nan nan nan nan nan nan nan nan nan nan nan nan nan nan nan 21 17 17 20 22 20 21 24 28 32 37 42 43 42 41 41 40 38 38 38 39 37 36 35 33 33 34 34 33 30 26 24 26 25 23 21 23 22
nan nan nan nan nan nan nan nan nan nan nan nan nan nan nan nan nan nan nan nan nan nan nan nan nan nan nan nan nan nan nan nan nan nan nan nan nan nan nan nan nan nan nan nan nan nan nan nan nan 26 25 24 22 21 22 26 27 28 28 37 39 39 39 39 38 37 39 41 41 41 40 39 37 37 38 38 36 32 31 30 26 24 27 26 24
nan nan nan nan nan nan nan nan nan nan nan nan nan nan nan nan nan nan nan nan nan nan nan nan nan nan nan nan nan nan nan nan nan nan nan nan nan nan nan nan nan nan nan nan nan nan nan nan nan nan nan 27 25 23 23 24 22 20 24 30 33 35 35 33 32 33 35 39 41 41 41 42 41 41 41 40 37 35 36 35 26 23 26 26 27
nan nan nan nan nan nan nan nan nan nan nan nan nan nan nan nan nan nan nan nan nan nan nan nan nan nan nan nan nan nan nan nan nan nan nan nan nan nan nan nan nan nan nan nan nan nan nan nan nan nan nan nan nan 27 24 23 23 27 30 31 30 29 29 29 28 29 31 32 34 35 36 37 38 39 39 40 41 37 32 29 26 22 26 28 30
nan nan nan nan nan nan nan nan nan nan nan nan nan nan nan nan nan nan nan nan nan nan nan nan nan nan nan nan nan nan nan nan nan nan nan nan nan nan nan nan nan nan nan nan nan nan nan nan nan nan nan nan nan 26 26 26 nan nan nan nan nan nan nan nan nan nan nan nan nan nan nan 30 nan nan nan nan nan nan 34 34 34 30 27 26 30
nan nan nan nan nan nan nan nan nan nan nan nan nan nan nan nan nan nan nan nan nan nan nan nan nan nan nan nan nan nan nan nan nan nan nan nan nan nan nan nan nan nan nan nan nan nan nan nan nan nan nan nan nan nan 27 nan nan nan nan nan nan nan nan nan nan nan nan nan nan nan nan nan nan nan nan nan nan nan nan nan nan 38 34 29 28
nan nan nan nan nan nan nan nan nan nan nan nan nan nan nan nan nan nan nan nan nan nan nan nan nan nan nan nan nan nan nan nan nan nan nan nan nan nan nan nan nan nan nan nan nan nan nan nan nan nan nan nan nan nan nan nan nan nan nan nan nan nan nan nan nan nan nan nan nan nan nan nan nan nan nan nan nan nan nan nan nan nan nan 34 31
nan nan nan nan nan nan nan nan nan nan nan nan nan nan nan nan nan nan nan nan nan nan nan nan nan nan nan nan nan nan nan nan nan nan nan nan nan nan nan nan nan nan nan nan nan nan nan nan nan nan nan nan nan nan nan nan nan nan nan nan nan nan nan nan nan nan nan nan nan nan nan nan nan nan nan nan nan nan nan nan nan nan nan nan nan
17 nan nan nan nan nan nan nan nan nan nan nan nan nan nan nan nan nan nan nan nan nan nan nan nan nan nan nan nan nan nan nan nan nan nan nan nan nan nan nan nan nan nan nan nan nan nan nan nan nan nan nan nan nan nan nan nan nan nan nan nan nan nan nan nan nan nan nan nan nan nan nan nan nan nan nan nan nan nan nan nan nan nan nan nan
21 20 20 nan nan nan nan nan nan nan nan nan nan nan nan nan nan nan nan nan nan nan nan nan nan nan nan nan nan nan nan nan nan nan nan nan nan nan nan nan nan nan nan nan nan nan nan nan nan nan nan nan nan nan nan nan nan nan nan nan nan nan nan nan nan nan nan nan nan nan nan nan nan nan nan nan nan nan nan nan nan nan nan nan nan
25 25 24 23 23 23 23 22 nan nan nan nan nan nan nan nan nan nan nan nan nan nan nan nan nan nan nan nan nan nan nan nan nan nan nan nan nan nan nan nan nan nan nan nan nan nan nan nan nan nan nan nan nan nan nan nan nan nan nan nan nan nan nan nan nan nan nan nan nan nan nan nan nan nan nan nan nan nan nan nan nan nan nan nan nan
23 nan nan 27 26 nan nan 26 24 21 nan nan nan nan nan nan nan nan nan nan nan nan nan nan nan nan nan nan nan nan nan nan nan nan nan nan nan nan nan nan nan nan nan nan nan nan nan nan nan nan nan nan nan nan nan nan nan nan nan nan nan nan nan nan nan nan nan nan nan nan nan nan nan nan nan nan nan nan nan nan nan nan nan nan nan
25 24 26 nan nan nan nan nan 27 nan nan nan nan nan nan nan nan nan nan nan nan nan nan nan nan nan nan nan nan nan nan nan nan nan nan nan nan nan nan nan nan nan nan nan nan nan nan nan nan nan nan nan nan nan nan nan nan nan nan nan nan nan nan nan nan nan nan nan nan nan nan nan nan nan nan nan nan nan nan nan nan nan nan nan nan
27 28 28 28 29 30 30 29 27 26 25 22 nan nan nan nan nan nan nan nan nan nan nan nan nan nan nan nan nan nan nan nan nan nan nan nan nan nan nan nan nan nan nan nan nan nan nan nan nan nan nan nan nan nan nan nan nan nan nan nan nan nan nan nan nan nan nan nan nan nan nan nan nan nan nan nan nan nan nan nan nan nan nan nan nan
27 28 29 28 27 28 31 32 29 27 26 24 23 23 24 25 25 nan nan nan nan nan nan nan nan nan nan nan nan nan nan nan nan nan nan nan nan nan nan nan nan nan nan nan nan nan nan nan nan nan nan nan nan nan nan nan nan nan nan nan nan nan nan nan nan nan nan nan nan nan nan nan nan nan nan nan nan nan nan nan nan nan nan nan nan
29 31 30 29 29 30 31 33 31 28 27 26 25 25 26 27 27 28 29 nan nan nan nan nan nan nan nan nan nan nan nan nan nan nan nan nan nan nan nan nan nan nan nan nan nan nan nan nan nan nan nan nan nan nan nan nan nan nan nan nan nan nan nan nan nan nan nan nan nan nan nan nan nan nan nan nan nan nan nan nan nan nan nan nan nan
31 31 32 nan 31 33 31 29 30 31 30 28 27 27 27 29 30 30 31 31 nan nan nan nan nan nan nan nan nan nan nan nan nan nan nan nan nan nan nan nan nan nan nan nan nan nan nan nan nan nan nan nan nan nan nan nan nan nan nan nan nan nan nan nan nan nan nan nan nan nan nan nan nan nan nan nan nan nan nan nan nan nan nan nan nan
35 33 34 34 nan nan nan nan nan nan nan nan nan nan 31 31 32 32 32 33 34 34 nan nan nan nan nan nan nan nan nan nan nan nan nan nan nan nan nan nan nan nan nan nan nan nan nan nan nan nan nan nan nan nan nan nan nan nan nan nan nan nan nan nan nan nan nan nan nan nan nan nan nan nan nan nan nan nan nan nan nan nan nan nan nan
39 39 38 38 37 36 35 34 34 34 nan 32 31 nan nan 34 33 33 33 34 36 37 36 nan nan nan 34 nan nan nan nan nan nan nan nan nan nan nan nan nan nan nan nan nan nan nan nan nan nan nan nan nan nan nan nan nan nan nan nan nan nan nan nan nan nan nan nan nan nan nan nan nan nan nan nan nan nan nan nan nan nan nan nan nan nan
40 41 42 40 40 40 40 39 37 36 35 34 31 33 33 nan 35 35 36 35 36 38 39 38 36 35 35 36 36 nan nan nan nan nan nan nan nan nan nan nan nan nan nan nan nan nan nan nan nan nan nan nan nan nan nan nan nan nan nan nan nan nan nan nan nan nan nan nan nan nan nan nan nan nan nan nan nan nan nan nan nan nan nan nan nan
39 41 40 39 40 41 42 41 40 39 37 34 32 31 33 35 36 37 38 37 35 35 37 37 37 37 36 36 36 37 37 nan nan nan nan nan nan nan nan nan nan nan nan nan nan nan nan nan nan nan nan nan nan nan nan nan nan nan nan nan nan nan nan nan nan nan nan nan nan nan nan nan nan nan nan nan nan nan nan nan nan nan nan nan nan
40 40 37 38 37 39 41 41 39 39 38 35 34 33 33 37 38 39 41 41 39 37 37 37 38 39 41 42 42 41 nan nan nan nan nan nan nan nan nan nan nan nan nan nan nan nan nan nan nan nan nan nan nan nan nan nan nan nan nan nan nan nan nan nan nan nan nan nan nan nan nan nan nan nan nan nan nan nan nan nan nan nan nan nan nan
nan nan 39 39 38 39 39 39 38 39 38 36 37 37 36 37 40 43 42 44 44 43 nan nan nan 44 47 49 49 nan nan nan nan nan nan nan nan nan nan nan nan nan nan nan nan nan nan nan nan nan nan nan nan nan nan nan nan nan nan nan nan nan nan nan nan nan nan nan nan nan nan nan nan nan nan nan nan nan nan nan nan nan nan nan nan
nan nan nan nan 40 40 40 39 39 37 41 43 42 42 41 40 40 44 44 46 48 49 50 51 nan nan nan nan nan nan nan nan nan nan nan nan nan nan nan nan nan nan nan nan nan nan nan nan nan nan nan nan nan nan nan nan nan nan nan nan nan nan nan nan nan nan nan nan nan nan nan nan nan nan nan nan nan nan nan nan nan nan nan nan nan
nan nan nan nan nan nan 42 43 41 42 42 39 42 43 43 44 46 47 nan nan 52 53 55 nan nan nan nan nan nan nan nan nan nan nan nan nan nan nan nan nan nan nan nan nan nan nan nan nan nan nan nan nan nan nan nan nan nan nan nan nan nan nan nan nan nan nan nan nan nan nan nan nan nan nan nan nan nan nan nan nan nan nan nan nan nan
nan nan nan nan nan nan 45 44 46 45 43 43 44 46 48 52 52 nan nan nan nan nan nan nan nan nan nan nan nan nan nan nan nan nan nan nan nan nan nan nan nan nan nan nan nan nan nan nan nan nan nan nan nan nan nan nan nan nan nan nan nan nan nan nan nan nan nan nan nan nan nan nan nan nan nan nan nan nan nan nan nan nan nan nan nan
nan nan nan nan nan nan nan 46 47 47 44 44 47 49 51 51 51 nan nan nan nan nan nan nan nan nan nan nan nan nan nan nan nan nan nan nan nan nan nan nan nan nan nan nan nan nan nan nan nan nan nan nan nan nan nan nan nan nan nan nan nan nan nan nan nan nan nan nan nan nan nan nan nan nan nan nan nan nan nan nan nan nan nan nan nan
nan nan nan nan nan nan nan 49 47 50 48 46 47 51 53 54 52 50 51 nan nan nan nan nan nan nan nan nan nan nan nan nan nan nan nan nan nan nan nan nan nan nan nan nan nan nan nan nan nan nan nan nan nan nan nan nan nan nan nan nan nan nan nan nan nan nan nan nan nan nan nan nan nan nan nan nan nan nan nan nan nan nan nan nan nan
Wind_Direction
283 277 272 271 270 269 266 263 259 261 262 266 269 270 270 269 267 261 254 247 240 234 nan nan nan nan nan nan nan nan nan 256 254 250 247 244 234 233 244 246 245 247 249 249 249 248 247 248 249 250 nan nan nan nan nan nan 256 nan 254 260 256 nan nan nan nan nan nan nan nan nan nan nan nan nan nan nan nan nan nan nan nan nan nan nan nan
285 275 276 272 270 269 264 261 261 259 261 266 267 270 274 267 262 259 259 256 252 244 nan nan nan nan nan nan nan nan 257 257 260 257 252 249 237 229 239 243 247 248 247 246 247 250 250 248 250 251 252 nan nan nan nan nan nan 246 240 261 257 nan nan nan nan nan nan nan nan nan nan nan nan nan nan nan nan nan nan nan nan nan nan nan nan
280 278 275 270 267 268 266 260 260 261 263 266 264 266 267 268 266 263 261 259 255 nan nan nan nan nan nan nan nan nan 259 259 261 263 261 258 245 232 231 242 246 249 249 245 242 247 251 249 252 251 251 nan 248 nan nan nan nan nan 244 261 260 257 nan nan nan nan nan nan nan nan nan nan nan nan nan nan nan nan nan nan nan nan nan nan nan
281 277 273 268 264 265 261 258 259 261 263 262 262 261 262 261 261 262 261 260 nan nan nan nan nan nan nan nan nan nan 264 259 261 263 262 261 254 238 231 233 242 248 251 248 244 243 247 249 251 252 250 251 nan 249 nan nan nan nan nan 253 260 259 nan nan nan nan nan nan nan nan nan nan nan nan nan nan nan nan nan nan nan nan nan nan nan
274 273 269 264 260 255 251 251 258 260 259 258 258 258 257 258 257 257 255 260 257 252 nan nan nan nan nan nan 249 nan nan 268 261 256 258 260 259 247 236 234 235 243 249 251 249 245 245 246 250 251 251 253 254 nan nan nan nan nan nan 257 257 260 260 nan nan nan nan nan nan nan nan nan nan nan nan nan nan nan nan nan nan nan nan nan nan
286 271 264 262 256 252 245 243 249 256 256 255 257 257 259 260 260 263 260 256 252 250 nan nan nan nan nan 247 nan nan nan 258 262 253 245 246 253 252 244 238 238 238 239 250 254 250 248 246 250 253 254 255 255 257 255 nan nan nan nan 257 254 256 262 264 nan nan nan nan nan nan nan nan nan nan nan nan nan nan nan nan nan nan nan nan nan
293 286 267 260 260 255 241 237 243 253 258 253 252 249 256 262 267 265 255 251 247 246 nan nan nan nan nan nan nan nan nan nan nan 259 250 247 248 245 241 240 240 240 242 243 251 256 253 250 251 254 258 257 258 260 259 257 nan nan nan nan nan 259 259 269 267 nan nan nan nan nan nan nan nan nan nan nan nan nan nan nan nan nan nan nan nan
292 284 280 269 261 251 246 244 249 256 258 253 248 246 251 266 261 269 256 249 251 nan nan nan 254 257 256 256 nan 254 nan nan nan nan 249 247 246 248 247 240 237 237 241 244 246 248 257 253 251 253 258 257 256 260 261 260 257 257 nan nan nan nan 261 269 273 272 nan nan nan nan nan nan nan nan nan nan nan nan nan nan nan nan nan nan nan
288 283 282 274 256 247 242 244 244 252 254 253 249 244 249 261 255 256 262 258 255 252 248 248 251 nan nan 256 253 nan 253 255 250 nan nan nan 248 250 252 249 243 236 234 238 242 243 250 256 252 253 256 257 255 256 260 259 256 257 260 nan nan nan nan nan 276 278 278 nan nan nan nan nan nan nan nan nan nan nan nan nan nan nan nan nan nan
289 285 276 262 252 245 238 244 245 253 254 247 248 248 250 261 262 254 256 259 254 nan 253 251 250 254 nan 257 256 253 256 258 253 245 nan nan nan 250 255 257 255 246 236 232 233 238 241 248 255 253 257 261 260 256 259 258 257 258 262 261 261 265 nan nan nan 276 281 283 nan nan nan nan nan nan nan nan nan nan nan nan nan nan nan nan nan
279 282 273 262 254 241 242 245 251 258 258 249 237 247 254 257 266 259 250 251 256 255 256 258 254 254 254 254 nan 258 259 258 258 254 246 238 238 241 nan 261 257 250 239 233 231 232 234 237 243 246 249 262 264 260 261 258 258 259 264 263 260 261 nan nan nan nan 277 283 284 nan nan nan nan nan nan nan nan nan nan nan nan nan nan nan nan
278 277 267 260 252 245 245 246 251 258 265 271 264 255 261 260 261 261 253 248 248 252 253 253 252 252 252 254 nan 259 261 260 257 256 252 241 233 239 245 257 268 258 247 237 233 233 236 238 238 238 240 245 253 256 256 255 254 254 263 265 263 264 267 269 nan nan nan 277 282 283 nan nan nan nan nan nan nan nan nan nan nan nan nan nan nan
293 283 273 275 266 255 247 246 249 254 258 265 268 260 257 259 258 257 259 252 246 244 246 256 254 249 246 248 249 256 253 255 257 252 248 250 243 245 248 254 259 259 253 242 236 234 236 240 243 244 244 244 246 250 253 253 253 255 259 265 268 269 273 273 273 nan nan nan 279 284 nan nan nan nan nan nan nan nan nan nan nan nan nan nan nan
274 277 276 273 268 260 254 254 255 258 258 258 261 261 261 260 261 253 252 255 248 247 245 251 245 253 249 245 247 248 252 250 253 251 249 253 254 252 251 259 262 257 253 251 241 237 237 240 243 246 248 249 249 250 251 250 250 252 254 254 259 270 275 278 279 280 281 281 280 285 288 nan nan nan nan nan nan nan nan nan nan nan nan nan nan
267 264 263 261 263 262 260 257 254 255 255 256 253 253 253 254 253 258 251 245 247 247 247 250 254 254 256 254 252 nan 242 245 251 249 248 253 258 262 263 262 264 265 261 251 242 241 238 238 241 243 246 248 249 252 254 252 250 250 250 249 246 250 271 280 285 286 287 287 287 285 288 288 nan nan nan nan nan nan nan nan nan nan nan nan nan
nan nan nan 267 263 258 255 254 255 251 251 250 248 250 248 249 249 252 255 251 248 245 243 247 254 254 254 257 256 256 nan nan 253 253 249 250 256 261 264 269 268 266 261 255 244 239 238 239 238 240 244 247 250 251 254 254 257 259 258 255 251 251 253 266 284 292 292 292 291 289 285 290 289 nan nan nan nan nan nan nan nan nan nan nan nan
nan nan nan nan 259 260 256 252 250 250 252 253 251 252 254 256 257 259 263 260 260 253 246 250 255 253 261 255 253 nan 260 260 256 256 245 249 248 256 262 269 271 267 263 252 237 236 235 236 234 234 237 242 247 250 252 254 254 255 257 260 263 263 263 263 260 278 291 292 291 293 289 291 291 290 nan nan nan nan nan nan nan nan nan nan nan
nan nan nan nan nan 257 256 253 253 254 256 255 255 256 255 256 258 262 260 259 267 265 260 257 259 251 250 251 nan nan 255 258 260 256 246 255 252 256 258 260 265 274 270 nan nan 243 237 237 237 235 234 235 238 242 245 247 251 253 254 257 267 268 268 265 261 256 268 289 294 295 294 291 291 289 288 nan nan nan nan nan nan nan nan nan nan
nan nan nan nan nan nan nan nan nan 255 253 252 250 251 251 254 258 260 263 263 265 266 271 263 260 256 251 242 242 246 251 252 253 253 251 245 252 252 240 242 246 246 249 261 nan 261 256 250 236 234 236 239 239 238 241 246 249 253 256 259 264 267 269 268 265 258 255 265 288 294 286 286 289 288 288 289 nan nan nan nan nan nan nan nan nan
nan nan nan nan nan nan nan nan nan nan nan nan nan nan 250 248 252 256 257 257 262 269 266 268 264 259 256 246 238 238 243 245 248 nan nan nan 247 241 246 237 240 249 255 252 253 257 258 256 252 241 235 237 242 241 242 244 246 248 249 256 260 264 265 265 263 262 259 259 261 271 280 274 275 284 286 286 289 290 nan nan nan nan nan nan nan
nan nan nan nan nan nan nan nan nan nan nan nan nan nan nan 252 249 nan nan nan 256 262 266 264 262 261 262 256 247 244 241 240 nan nan nan nan nan 246 nan nan 247 244 243 245 248 250 251 255 261 260 253 242 239 241 244 245 246 247 248 250 255 257 258 259 260 261 259 nan 257 267 269 272 270 269 273 280 282 283 289 nan nan nan nan nan nan
nan nan nan nan nan nan nan nan nan nan nan nan nan nan nan nan nan nan nan nan nan 258 nan 258 256 254 256 263 254 249 245 nan nan nan nan nan nan nan nan nan nan nan nan 246 247 243 247 256 261 269 267 255 247 243 241 243 247 248 246 247 248 250 253 256 258 257 255 nan nan 256 262 269 270 272 277 276 281 287 288 291 nan 289 289 nan nan
nan nan nan nan nan nan nan nan nan nan nan nan nan nan nan nan nan nan nan nan nan nan nan nan nan nan nan 254 256 255 nan nan nan nan nan nan nan nan nan nan nan nan nan nan 243 245 250 257 265 267 267 267 260 244 239 239 241 244 249 251 251 252 254 256 260 262 262 261 259 259 262 263 263 264 263 264 272 282 289 286 285 289 291 288 289
nan nan nan nan nan nan nan nan nan nan nan nan nan nan nan nan nan nan nan nan nan nan nan nan nan nan nan nan nan nan nan nan nan nan nan nan nan nan nan nan nan nan nan nan nan nan nan 254 265 273 264 254 249 256 253 249 243 244 248 251 252 255 255 256 258 258 259 259 259 259 261 262 264 267 267 264 260 262 274 282 285 288 292 293 287
nan nan nan nan nan nan nan nan nan nan nan nan nan nan nan nan nan nan nan nan nan nan nan nan nan nan nan nan nan nan nan nan nan nan nan nan nan nan nan nan nan nan nan nan nan nan nan nan nan 251 259 256 253 246 246 243 241 240 237 243 242 241 244 247 253 258 259 260 258 258 258 258 258 259 261 261 260 261 262 260 257 259 256 257 274
nan nan nan nan nan nan nan nan nan nan nan nan nan nan nan nan nan nan nan nan nan nan nan nan nan nan nan nan nan nan nan nan nan nan nan nan nan nan nan nan nan nan nan nan nan nan nan nan nan nan nan 247 246 245 245 246 242 235 238 244 243 243 245 245 246 252 258 259 258 254 252 254 254 254 256 255 254 259 260 260 256 258 266 272 275
nan nan nan nan nan nan nan nan nan nan nan nan nan nan nan nan nan nan nan nan nan nan nan nan nan nan nan nan nan nan nan nan nan nan nan nan nan nan nan nan nan nan nan nan nan nan nan nan nan nan nan nan nan 240 237 238 237 238 237 241 242 239 243 248 251 250 251 251 253 255 253 251 252 254 255 251 247 249 248 251 274 282 282 286 287
nan nan nan nan nan nan nan nan nan nan nan nan nan nan nan nan nan nan nan nan nan nan nan nan nan nan nan nan nan nan nan nan nan nan nan nan nan nan nan nan nan nan nan nan nan nan nan nan nan nan nan nan nan 243 239 238 nan nan nan nan nan nan nan nan nan nan nan nan nan nan nan 256 nan nan nan nan nan nan 247 252 264 273 277 277 279
nan nan nan nan nan nan nan nan nan nan nan nan nan nan nan nan nan nan nan nan nan nan nan nan nan nan nan nan nan nan nan nan nan nan nan nan nan nan nan nan nan nan nan nan nan nan nan nan nan nan nan nan nan nan 241 nan nan nan nan nan nan nan nan nan nan nan nan nan nan nan nan nan nan nan nan nan nan nan nan nan nan 264 266 268 268
nan nan nan nan nan nan nan nan nan nan nan nan nan nan nan nan nan nan nan nan nan nan nan nan nan nan nan nan nan nan nan nan nan nan nan nan nan nan nan nan nan nan nan nan nan nan nan nan nan nan nan nan nan nan nan nan nan nan nan nan nan nan nan nan nan nan nan nan nan nan nan nan nan nan nan nan nan nan nan nan nan nan nan 263 267
nan nan nan nan nan nan nan nan nan nan nan nan nan nan nan nan nan nan nan nan nan nan nan nan nan nan nan nan nan nan nan nan nan nan nan nan nan nan nan nan nan nan nan nan nan nan nan nan nan nan nan nan nan nan nan nan nan nan nan nan nan nan nan nan nan nan nan nan nan nan nan nan nan nan nan nan nan nan nan nan nan nan nan nan nan
298 nan nan nan nan nan nan nan nan nan nan nan nan nan nan nan nan nan nan nan nan nan nan nan nan nan nan nan nan nan nan nan nan nan nan nan nan nan nan nan nan nan nan nan nan nan nan nan nan nan nan nan nan nan nan nan nan nan nan nan nan nan nan nan nan nan nan nan nan nan nan nan nan nan nan nan nan nan nan nan nan nan nan nan nan
295 294 293 nan nan nan nan nan nan nan nan nan nan nan nan nan nan nan nan nan nan nan nan nan nan nan nan nan nan nan nan nan nan nan nan nan nan nan nan nan nan nan nan nan nan nan nan nan nan nan nan nan nan nan nan nan nan nan nan nan nan nan nan nan nan nan nan nan nan nan nan nan nan nan nan nan nan nan nan nan nan nan nan nan nan
298 298 296 296 296 295 294 292 nan nan nan nan nan nan nan nan nan nan nan nan nan nan nan nan nan nan nan nan nan nan nan nan nan nan nan nan nan nan nan nan nan nan nan nan nan nan nan nan nan nan nan nan nan nan nan nan nan nan nan nan nan nan nan nan nan nan nan nan nan nan nan nan nan nan nan nan nan nan nan nan nan nan nan nan nan
287 nan nan 297 298 nan nan 296 292 288 nan nan nan nan nan nan nan nan nan nan nan nan nan nan nan nan nan nan nan nan nan nan nan nan nan nan nan nan nan nan nan nan nan nan nan nan nan nan nan nan nan nan nan nan nan nan nan nan nan nan nan nan nan nan nan nan nan nan nan nan nan nan nan nan nan nan nan nan nan nan nan nan nan nan nan
281 280 284 nan nan nan nan nan 292 nan nan nan nan nan nan nan nan nan nan nan nan nan nan nan nan nan nan nan nan nan nan nan nan nan nan nan nan nan nan nan nan nan nan nan nan nan nan nan nan nan nan nan nan nan nan nan nan nan nan nan nan nan nan nan nan nan nan nan nan nan nan nan nan nan nan nan nan nan nan nan nan nan nan nan nan
283 282 278 280 284 287 290 289 288 288 291 293 nan nan nan nan nan nan nan nan nan nan nan nan nan nan nan nan nan nan nan nan nan nan nan nan nan nan nan nan nan nan nan nan nan nan nan nan nan nan nan nan nan nan nan nan nan nan nan nan nan nan nan nan nan nan nan nan nan nan nan nan nan nan nan nan nan nan nan nan nan nan nan nan nan
284 282 278 273 276 284 287 285 281 283 285 285 289 292 289 285 284 nan nan nan nan nan nan nan nan nan nan nan nan nan nan nan nan nan nan nan nan nan nan nan nan nan nan nan nan nan nan nan nan nan nan nan nan nan nan nan nan nan nan nan nan nan nan nan nan nan nan nan nan nan nan nan nan nan nan nan nan nan nan nan nan nan nan nan nan
289 285 281 276 268 278 286 283 273 270 272 275 280 283 283 283 284 282 280 nan nan nan nan nan nan nan nan nan nan nan nan nan nan nan nan nan nan nan nan nan nan nan nan nan nan nan nan nan nan nan nan nan nan nan nan nan nan nan nan nan nan nan nan nan nan nan nan nan nan nan nan nan nan nan nan nan nan nan nan nan nan nan nan nan nan
282 284 286 nan 282 283 289 285 276 272 273 275 273 274 278 284 285 282 279 279 nan nan nan nan nan nan nan nan nan nan nan nan nan nan nan nan nan nan nan nan nan nan nan nan nan nan nan nan nan nan nan nan nan nan nan nan nan nan nan nan nan nan nan nan nan nan nan nan nan nan nan nan nan nan nan nan nan nan nan nan nan nan nan nan nan
286 285 282 282 nan nan nan nan nan nan nan nan nan nan 277 283 285 281 278 278 277 276 nan nan nan nan nan nan nan nan nan nan nan nan nan nan nan nan nan nan nan nan nan nan nan nan nan nan nan nan nan nan nan nan nan nan nan nan nan nan nan nan nan nan nan nan nan nan nan nan nan nan nan nan nan nan nan nan nan nan nan nan nan nan nan
285 285 285 284 284 284 282 279 278 277 nan 276 278 nan nan 283 281 278 276 276 275 274 274 nan nan nan 271 nan nan nan nan nan nan nan nan nan nan nan nan nan nan nan nan nan nan nan nan nan nan nan nan nan nan nan nan nan nan nan nan nan nan nan nan nan nan nan nan nan nan nan nan nan nan nan nan nan nan nan nan nan nan nan nan nan nan
283 282 282 282 283 283 282 282 281 281 280 279 285 287 288 nan 280 276 275 274 271 269 268 269 270 272 270 270 269 nan nan nan nan nan nan nan nan nan nan nan nan nan nan nan nan nan nan nan nan nan nan nan nan nan nan nan nan nan nan nan nan nan nan nan nan nan nan nan nan nan nan nan nan nan nan nan nan nan nan nan nan nan nan nan nan
278 277 278 278 277 278 279 280 281 281 281 281 283 282 283 282 279 275 274 276 273 269 267 269 269 269 269 268 268 267 269 nan nan nan nan nan nan nan nan nan nan nan nan nan nan nan nan nan nan nan nan nan nan nan nan nan nan nan nan nan nan nan nan nan nan nan nan nan nan nan nan nan nan nan nan nan nan nan nan nan nan nan nan nan nan
276 279 278 276 275 274 275 276 276 277 276 277 277 275 274 275 278 275 271 272 271 270 270 272 271 266 264 266 267 266 nan nan nan nan nan nan nan nan nan nan nan nan nan nan nan nan nan nan nan nan nan nan nan nan nan nan nan nan nan nan nan nan nan nan nan nan nan nan nan nan nan nan nan nan nan nan nan nan nan nan nan nan nan nan nan
nan nan 274 276 275 275 275 276 276 273 273 268 271 272 270 267 270 273 269 269 270 271 nan nan nan 269 269 270 271 nan nan nan nan nan nan nan nan nan nan nan nan nan nan nan nan nan nan nan nan nan nan nan nan nan nan nan nan nan nan nan nan nan nan nan nan nan nan nan nan nan nan nan nan nan nan nan nan nan nan nan nan nan nan nan nan
nan nan nan nan 277 277 277 276 274 272 267 261 267 270 271 273 274 273 268 268 269 269 268 268 nan nan nan nan nan nan nan nan nan nan nan nan nan nan nan nan nan nan nan nan nan nan nan nan nan nan nan nan nan nan nan nan nan nan nan nan nan nan nan nan nan nan nan nan nan nan nan nan nan nan nan nan nan nan nan nan nan nan nan nan nan
nan nan nan nan nan nan 276 276 276 272 268 264 272 274 274 272 272 268 nan nan 268 268 269 nan nan nan nan nan nan nan nan nan nan nan nan nan nan nan nan nan nan nan nan nan nan nan nan nan nan nan nan nan nan nan nan nan nan nan nan nan nan nan nan nan nan nan nan nan nan nan nan nan nan nan nan nan nan nan nan nan nan nan nan nan nan
nan nan nan nan nan nan 276 276 276 273 270 267 270 273 273 274 269 nan nan nan nan nan nan nan nan nan nan nan nan nan nan nan nan nan nan nan nan nan nan nan nan nan nan nan nan nan nan nan nan nan nan nan nan nan nan nan nan nan nan nan nan nan nan nan nan nan nan nan nan nan nan nan nan nan nan nan nan nan nan nan nan nan nan nan nan
nan nan nan nan nan nan nan 277 279 278 274 272 276 277 279 278 275 nan nan nan nan nan nan nan nan nan nan nan nan nan nan nan nan nan nan nan nan nan nan nan nan nan nan nan nan nan nan nan nan nan nan nan nan nan nan nan nan nan nan nan nan nan nan nan nan nan nan nan nan nan nan nan nan nan nan nan nan nan nan nan nan nan nan nan nan
nan nan nan nan nan nan nan 269 273 275 275 275 277 279 279 279 276 274 274 nan nan nan nan nan nan nan nan nan nan nan nan nan nan nan nan nan nan nan nan nan nan nan nan nan nan nan nan nan nan nan nan nan nan nan nan nan nan nan nan nan nan nan nan nan nan nan nan nan nan nan nan nan nan nan nan nan nan nan nan nan nan nan nan nan nan